sat.trackr.live / text

‹ back to catalog

STARLINK-30869

NORAD 58437 · 2023-183A

PAYLOAD ACTIVE UNKNOWN

§ Identity

Operator
Country
US
Launch date
2023-11-28
Launch site
AFETR
Launch vehicle
Mass (kg)
RCS (m²)

Purposes: comms

External: N2YO · Heavens-Above · Gunter

§ Orbital elements

Epoch: 2026-09-20T14:36:21.661056Z

Period
94.26 min
Inclination
43.0016°
Eccentricity
0.0000773
Mean motion
15.27613220 rev/d
Perigee alt
482.4 km
Apogee alt
483.5 km
Semi-major
6,861.1 km
B*
7.5043e-4
RAAN
20.9058°
Arg perigee
228.0240°
Mean anomaly
132.0546°
Rev number
15,654

§ Raw data

STARLINK-308691 58437U 23183A   26263.60858404  .00020466  00000+0  75043-3 0  99972 58437  43.0016  20.9058 0000773 228.0240 132.0546 15.27613220156543

JSON: /api/v1/satellites/58437 · /tle

For live sub-satellite position, see the globe view (requires WebGL).

§ Visibility from observer

Set your observer location to see the next 7 days of passes ≥ 10°. The values pass through the URL so the page stays shareable.

No JS? Fill the form by hand. The geolocation button needs JavaScript.